Eden Prairie, MN

8:54 PM CST on February 24, 2017 (GMT -0600)
Flying Cloud

Weather History for KFCM - July, 2013

Change the Weather History Date:

Monday, July 29, 2013

  Actual Average Record
Temperature  
Mean Temperature 66 °F -  
Max Temperature 78 °F 81 °F 97 °F (2006)
Min Temperature 54 °F 61 °F 54 °F (2013)
Cooling Degree Days 1    
Growing Degree Days 16 (Base 50)    
Moisture  
Dew Point 54 °F    
Average Humidity 65    
Maximum Humidity 93    
Minimum Humidity 43    
Precipitation  
Precipitation 0.00 in - - ()
Sea Level Pressure  
Sea Level Pressure 30.09 in    
Wind  
Wind Speed 3 mph (SSE)    
Max Wind Speed 8 mph    
Max Gust Speed -    
Visibility 10 miles    
Events Rain    
Averages and records for this station are not official NWS values.
T = Trace of Precipitation, MM = Missing Value Source: NWS Daily Summary

Daily Weather History Graph

Daily Weather History Graph

Search for Another Location

Airport or City:

Trip Planner

Search our weather history database for the weather conditions in past years. The results will help you decide how hot, cold, wet, or windy it might be!

Date:

Astronomy

Jul. 29, 2013 Rise Set
Actual Time 5:56 AM CDT 8:43 PM CDT
Civil Twilight 5:22 AM CDT 9:17 PM CDT
Nautical Twilight 4:39 AM CDT 9:59 PM CDT
Astronomical Twilight 3:49 AM CDT 10:49 PM CDT
Moon No Moon Rise 2:01 PM CDT (7/29)
Length of Visible Light 15h 54m
Length of Day
14h 46m
Waning Gibbous, 50% of the Moon is Illuminated
Jul 29
Waning Gibbous
Jul 29
Last Quarter
Aug 6
New
Aug 14
First Quarter
Aug 20
Full

Hourly Weather History & Observations

Time (CDT) Temp. Dew Point Humidity Pressure Visibility Wind Dir Wind Speed Gust Speed Precip Events Conditions
12:53 AM 59.0 °F 53.1 °F 81% 30.06 in 10.0 mi Calm Calm - N/A   Clear
1:53 AM 57.0 °F 53.1 °F 87% 30.06 in 10.0 mi Calm Calm - N/A   Clear
2:53 AM 57.0 °F 52.0 °F 83% 30.07 in 10.0 mi Calm Calm - N/A   Clear
3:53 AM 55.0 °F 52.0 °F 89% 30.07 in 10.0 mi Calm Calm - N/A   Clear
4:53 AM 55.0 °F 52.0 °F 89% 30.08 in 10.0 mi Calm Calm - N/A   Clear
5:53 AM 54.0 °F 51.1 °F 90% 30.09 in 10.0 mi Calm Calm - N/A   Clear
6:53 AM 57.0 °F 55.0 °F 93% 30.09 in 10.0 mi Calm Calm - N/A   Clear
7:53 AM 60.1 °F 55.0 °F 83% 30.11 in 10.0 mi Variable 4.6 mph - N/A   Clear
8:53 AM 64.0 °F 55.9 °F 75% 30.12 in 10.0 mi SE 3.5 mph - N/A   Clear
9:53 AM 68.0 °F 54.0 °F 61% 30.12 in 10.0 mi South 6.9 mph - N/A   Clear
10:53 AM 70.0 °F 54.0 °F 57% 30.13 in 10.0 mi SSW 4.6 mph - N/A   Clear
11:53 AM 72.0 °F 54.0 °F 53% 30.12 in 10.0 mi South 6.9 mph - N/A   Partly Cloudy
12:53 PM 72.0 °F 54.0 °F 53% 30.10 in 10.0 mi South 6.9 mph - N/A   Scattered Clouds
1:53 PM 75.9 °F 53.1 °F 45% 30.09 in 10.0 mi SSE 8.1 mph - N/A   Partly Cloudy
2:53 PM 75.0 °F 53.1 °F 46% 30.08 in 10.0 mi South 6.9 mph - N/A   Mostly Cloudy
3:53 PM 73.9 °F 52.0 °F 46% 30.09 in 10.0 mi South 6.9 mph - N/A   Mostly Cloudy
4:53 PM 78.1 °F 54.0 °F 43% 30.07 in 10.0 mi South 8.1 mph - N/A   Overcast
5:53 PM 73.9 °F 53.1 °F 48% 30.08 in 10.0 mi SSE 6.9 mph - N/A   Scattered Clouds
6:53 PM 73.9 °F 53.1 °F 48% 30.07 in 10.0 mi South 5.8 mph - N/A   Mostly Cloudy
7:53 PM 73.0 °F 55.0 °F 53% 30.07 in 10.0 mi SSE 4.6 mph - N/A   Clear
8:53 PM 71.1 °F 55.0 °F 57% 30.07 in 10.0 mi ESE 5.8 mph - 0.00 in   Partly Cloudy
9:53 PM 69.1 °F 55.0 °F 61% 30.07 in 10.0 mi SE 6.9 mph - N/A   Mostly Cloudy
10:53 PM 70.0 °F 55.9 °F 61% 30.07 in 10.0 mi SE 5.8 mph - N/A   Overcast
11:53 PM 69.1 °F 57.0 °F 65% 30.08 in 10.0 mi SSW 4.6 mph - 0.00 in Rain Light Rain